Location: Sungai Buloh
(3.1000°N, 113.0000°E)
Time: 22:30:39
(UTC+00:00)

Ariane H10+ - Pass Details

Date: 12 January 2026
Orbit: 224 x 2857 km, 6.7° (Epoch: 11 February)

Event Time Altitude Azimuth Distance (km) Brightness Sun altitude
Exits shadow 19:30:48 -2° 82° (E) 2,890 5.6 -43.8°
Enters shadow 20:52:37 -44° 272° (W) 12,367 8.0 -25.2°
Maximum altitude 21:30:25 55° 360° (N) 559 1.2 -16.5°
